This is the latest recevied weather packets stored in our database for station/object SP5EB-3. If no packets are shown the sender has not sent any weather packets the latest 10 day(s).
| Time | Temp. | Humidity | Pressure | Rain* | Wind** | Luminosity | Snow |
|---|---|---|---|---|---|---|---|
| 1777401993 | 8.89° C | 99% | 1021.7 hPa | - | - | - | - |
| 1777401686 | 8.89° C | 99% | 1021.7 hPa | - | - | - | - |
| 1777400765 | 9.44° C | 99% | 1021.5 hPa | - | - | - | - |
| 1777400458 | 9.44° C | 99% | 1021.6 hPa | - | - | - | - |
| 1777399844 | 9.44° C | 99% | 1021.5 hPa | - | - | - | - |
| 1777399230 | 10° C | 99% | 1021.4 hPa | - | - | - | - |
| 1777398923 | 10° C | 99% | 1021.3 hPa | - | - | - | - |
| 1777397695 | 11.11° C | 99% | 1021.2 hPa | - | - | - | - |
| 1777397080 | 11.67° C | 99% | 1021 hPa | - | - | - | - |
| 1777396466 | 11.67° C | 99% | 1021 hPa | - | - | - | - |
| 1777396159 | 12.22° C | 99% | 1021 hPa | - | - | - | - |
| 1777394929 | 13.89° C | 99% | 1021.1 hPa | - | - | - | - |
| 1777394314 | 15° C | 99% | 1021.1 hPa | - | - | - | - |
| 1777393083 | 13.33° C | 99% | 1021.1 hPa | - | - | - | - |
| 1777392468 | 13.33° C | 99% | 1021.1 hPa | - | - | - | - |
| 1777391238 | 13.33° C | 99% | 1021.2 hPa | - | - | - | - |
| 1777390316 | 14.44° C | 99% | 1021.3 hPa | - | - | - | - |
| 1777389700 | 13.89° C | 99% | 1021.2 hPa | - | - | - | - |
| 1777389392 | 12.78° C | 99% | 1021.2 hPa | - | - | - | - |
| 1777389085 | 12.78° C | 99% | 1021.3 hPa | - | - | - | - |
| 1777388778 | 12.78° C | 99% | 1021.4 hPa | - | - | - | - |
| 1777388470 | 13.33° C | 99% | 1021.5 hPa | - | - | - | - |
| 1777388162 | 13.89° C | 99% | 1021.6 hPa | - | - | - | - |
| 1777387547 | 15° C | 99% | 1021.5 hPa | - | - | - | - |
| 1777386932 | 16.11° C | 99% | 1021.7 hPa | - | - | - | - |
* Rain since midnight (hover to see other rain measurements)
** Current wind speed in m/s (hover to see current wind gust speed)